When you browse on this site, cookies collect data to enhance your experience and personalize the content and advertising you see.
Visit our Privacy Policy to learn more. By continuing to use the site, you agree to this use of cookies and data.

Météo par heure à Golyn

Ce jour, 12 Juillet, Dimanche

Heure Température Précipitation Vent Pression Humidité
00:00 +13°C° 0 mm 3 m/s 751 mmHg 83%
01:00 +13°C° 0 mm 3 m/s 751 mmHg 85%
02:00 +13°C° 0 mm 2 m/s 752 mmHg 92%
03:00 +13°C° 0.9 mm 2 m/s 751 mmHg 93%
04:00 +13°C° 0.9 mm 2 m/s 751 mmHg 95%
05:00 +12°C° 0.9 mm 2 m/s 751 mmHg 96%
06:00 +13°C° 0.3 mm 2 m/s 751 mmHg 94%
07:00 +13°C° 0.3 mm 2 m/s 751 mmHg 92%
08:00 +13°C° 0 mm 3 m/s 752 mmHg 90%
09:00 +13°C° 0.1 mm 3 m/s 752 mmHg 86%
10:00 +14°C° 0.1 mm 3 m/s 752 mmHg 81%
11:00 +14°C° 0.1 mm 3 m/s 752 mmHg 77%
12:00 +16°C° 0.1 mm 3 m/s 752 mmHg 73%
13:00 +17°C° 0.1 mm 3 m/s 752 mmHg 69%
14:00 +18°C° 0.1 mm 3 m/s 752 mmHg 65%
15:00 +18°C° 0 mm 3 m/s 752 mmHg 66%
16:00 +18°C° 0 mm 3 m/s 751 mmHg 66%
17:00 +18°C° 0 mm 3 m/s 751 mmHg 67%
18:00 +17°C° 0 mm 3 m/s 751 mmHg 73%
19:00 +16°C° 0 mm 2 m/s 751 mmHg 80%
20:00 +15°C° 0 mm 2 m/s 751 mmHg 87%
21:00 +14°C° 0 mm 2 m/s 751 mmHg 89%
22:00 +13°C° 0 mm 2 m/s 751 mmHg 91%
23:00 +11°C° 0 mm 3 m/s 751 mmHg 94%

Demain, 13 Juillet, Lundi

Heure Température Précipitation Vent Pression Humidité
00:00 +10°C° 0 mm 3 m/s 751 mmHg 94%
01:00 +9°C° 0 mm 3 m/s 751 mmHg 95%
02:00 +9°C° 0 mm 3 m/s 752 mmHg 96%
03:00 +8°C° 0 mm 3 m/s 751 mmHg 96%
04:00 +8°C° 0 mm 3 m/s 751 mmHg 96%
05:00 +8°C° 0 mm 3 m/s 751 mmHg 97%
06:00 +9°C° 0 mm 3 m/s 751 mmHg 91%
07:00 +11°C° 0 mm 3 m/s 751 mmHg 85%
08:00 +13°C° 0 mm 3 m/s 751 mmHg 80%
09:00 +14°C° 0 mm 4 m/s 751 mmHg 74%
10:00 +17°C° 0 mm 4 m/s 750 mmHg 68%
11:00 +18°C° 0 mm 4 m/s 750 mmHg 62%
12:00 +18°C° 0 mm 4 m/s 750 mmHg 61%
13:00 +19°C° 0 mm 3 m/s 750 mmHg 59%
14:00 +19°C° 0 mm 3 m/s 750 mmHg 58%
15:00 +20°C° 0.1 mm 3 m/s 749 mmHg 59%
16:00 +20°C° 0.1 mm 3 m/s 749 mmHg 60%
17:00 +20°C° 0.1 mm 3 m/s 748 mmHg 61%
18:00 +18°C° 0 mm 3 m/s 748 mmHg 67%
19:00 +17°C° 0 mm 2 m/s 748 mmHg 74%
20:00 +15°C° 0 mm 2 m/s 748 mmHg 81%
21:00 +14°C° 0 mm 2 m/s 748 mmHg 84%
22:00 +13°C° 0 mm 2 m/s 748 mmHg 87%
23:00 +12°C° 0 mm 2 m/s 749 mmHg 91%

Après-demain, 14 Juillet, Mardi

Heure Température Précipitation Vent Pression Humidité
00:00 +12°C° 0 mm 2 m/s 749 mmHg 92%
01:00 +10°C° 0 mm 2 m/s 749 mmHg 94%
02:00 +10°C° 0 mm 2 m/s 749 mmHg 96%
03:00 +10°C° 0 mm 2 m/s 749 mmHg 97%
04:00 +10°C° 0 mm 2 m/s 748 mmHg 97%
05:00 +10°C° 0 mm 2 m/s 748 mmHg 98%
06:00 +12°C° 0 mm 2 m/s 748 mmHg 93%
07:00 +14°C° 0 mm 2 m/s 748 mmHg 88%
08:00 +16°C° 0 mm 2 m/s 749 mmHg 83%
09:00 +17°C° 0.1 mm 2 m/s 748 mmHg 78%
10:00 +18°C° 0.1 mm 3 m/s 748 mmHg 73%
11:00 +20°C° 0.1 mm 3 m/s 748 mmHg 68%
12:00 +20°C° 0.3 mm 3 m/s 748 mmHg 68%
13:00 +20°C° 0.3 mm 3 m/s 748 mmHg 68%
14:00 +20°C° 0.3 mm 3 m/s 747 mmHg 68%
15:00 +20°C° 0.3 mm 3 m/s 747 mmHg 69%
16:00 +20°C° 0.3 mm 3 m/s 747 mmHg 70%
17:00 +20°C° 0.3 mm 2 m/s 747 mmHg 70%
18:00 +19°C° 0.2 mm 2 m/s 747 mmHg 76%
19:00 +18°C° 0.2 mm 2 m/s 747 mmHg 82%
20:00 +17°C° 0.2 mm 2 m/s 747 mmHg 87%
21:00 +16°C° 0 mm 2 m/s 747 mmHg 89%
22:00 +15°C° 0 mm 2 m/s 747 mmHg 91%
23:00 +14°C° 0 mm 2 m/s 747 mmHg 93%

15 Juillet, Mercredi

Heure Température Précipitation Vent Pression Humidité
00:00 +13°C° 0 mm 2 m/s 747 mmHg 93%
01:00 +13°C° 0 mm 2 m/s 747 mmHg 94%
02:00 +12°C° 0 mm 2 m/s 747 mmHg 94%
03:00 +12°C° 0 mm 2 m/s 747 mmHg 94%
04:00 +12°C° 0 mm 2 m/s 747 mmHg 95%
05:00 +12°C° 0 mm 1 m/s 747 mmHg 95%
06:00 +14°C° 0 mm 2 m/s 747 mmHg 90%
07:00 +15°C° 0 mm 2 m/s 747 mmHg 85%
08:00 +17°C° 0 mm 2 m/s 747 mmHg 81%
09:00 +18°C° 0 mm 2 m/s 747 mmHg 75%
10:00 +20°C° 0 mm 2 m/s 747 mmHg 69%
11:00 +21°C° 0 mm 2 m/s 747 mmHg 63%
12:00 +23°C° 0.1 mm 2 m/s 747 mmHg 60%
13:00 +23°C° 0.1 mm 2 m/s 746 mmHg 57%
14:00 +24°C° 0.1 mm 2 m/s 746 mmHg 54%
15:00 +24°C° 0.1 mm 2 m/s 746 mmHg 57%
16:00 +23°C° 0.1 mm 2 m/s 746 mmHg 61%
17:00 +23°C° 0.1 mm 2 m/s 746 mmHg 64%
18:00 +22°C° 0.1 mm 1 m/s 746 mmHg 70%
19:00 +20°C° 0.1 mm 1 m/s 746 mmHg 76%
20:00 +16°C° 0.1 mm 0 m/s 746 mmHg 83%
21:00 +16°C° 0 mm 0 m/s 746 mmHg 84%
22:00 +15°C° 0 mm 0 m/s 746 mmHg 86%
23:00 +14°C° 0 mm 0 m/s 746 mmHg 88%

16 Juillet, Jeudi

Heure Température Précipitation Vent Pression Humidité
00:00 +13°C° 0 mm 0 m/s 746 mmHg 89%
01:00 +13°C° 0 mm 0 m/s 746 mmHg 89%
02:00 +14°C° 0 mm 1 m/s 746 mmHg 90%
03:00 +14°C° 0 mm 1 m/s 745 mmHg 90%
04:00 +13°C° 0 mm 1 m/s 745 mmHg 91%
05:00 +12°C° 0 mm 0 m/s 745 mmHg 91%
06:00 +15°C° 0 mm 1 m/s 745 mmHg 87%
07:00 +18°C° 0 mm 1 m/s 745 mmHg 82%
08:00 +20°C° 0 mm 1 m/s 745 mmHg 78%
09:00 +21°C° 0.1 mm 1 m/s 745 mmHg 72%
10:00 +23°C° 0.1 mm 2 m/s 744 mmHg 66%
11:00 +24°C° 0.1 mm 2 m/s 744 mmHg 60%
12:00 +25°C° 0.1 mm 2 m/s 744 mmHg 59%
13:00 +25°C° 0.1 mm 2 m/s 744 mmHg 58%
14:00 +25°C° 0.1 mm 2 m/s 744 mmHg 57%
15:00 +25°C° 0.5 mm 2 m/s 743 mmHg 62%
16:00 +24°C° 0.5 mm 2 m/s 743 mmHg 68%
17:00 +23°C° 0.5 mm 2 m/s 743 mmHg 74%
18:00 +20°C° 0.7 mm 2 m/s 743 mmHg 81%
19:00 +19°C° 0.7 mm 2 m/s 743 mmHg 88%
20:00 +17°C° 0.7 mm 3 m/s 743 mmHg 95%
21:00 +16°C° 0.5 mm 2 m/s 743 mmHg 96%
22:00 +16°C° 0.5 mm 2 m/s 743 mmHg 97%
23:00 +16°C° 0.5 mm 1 m/s 743 mmHg 98%

17 Juillet, Vendredi

Heure Température Précipitation Vent Pression Humidité
00:00 +16°C° 0.2 mm 1 m/s 743 mmHg 98%
01:00 +16°C° 0.2 mm 1 m/s 743 mmHg 98%
02:00 +15°C° 0.2 mm 1 m/s 743 mmHg 98%
03:00 +15°C° 0.4 mm 1 m/s 743 mmHg 98%
04:00 +15°C° 0.4 mm 1 m/s 743 mmHg 98%
05:00 +15°C° 0.4 mm 1 m/s 743 mmHg 98%
06:00 +15°C° 3.3 mm 2 m/s 743 mmHg 98%
07:00 +15°C° 3.3 mm 2 m/s 743 mmHg 98%
08:00 +15°C° 3.3 mm 2 m/s 743 mmHg 98%
09:00 +14°C° 3.8 mm 3 m/s 743 mmHg 98%
10:00 +14°C° 3.8 mm 3 m/s 743 mmHg 97%
11:00 +14°C° 3.8 mm 3 m/s 743 mmHg 96%
12:00 +14°C° 0.6 mm 3 m/s 743 mmHg 95%
13:00 +15°C° 0.6 mm 2 m/s 743 mmHg 94%
14:00 +16°C° 0.6 mm 2 m/s 743 mmHg 93%
15:00 +16°C° 0.2 mm 2 m/s 743 mmHg 92%
16:00 +16°C° 0.2 mm 3 m/s 743 mmHg 92%
17:00 +16°C° 0.2 mm 3 m/s 743 mmHg 92%
18:00 +16°C° 0.2 mm 3 m/s 743 mmHg 93%
19:00 +14°C° 0.2 mm 4 m/s 743 mmHg 94%
20:00 +14°C° 0.2 mm 4 m/s 743 mmHg 95%
21:00 +14°C° 0.1 mm 4 m/s 743 mmHg 96%
22:00 +13°C° 0.1 mm 4 m/s 743 mmHg 96%
23:00 +13°C° 0.1 mm 3 m/s 744 mmHg 97%
Voir plus